SCP
-0 -0 -0 -0 -0 -0 0 -0 -0 -0 -0 -0 -0 -0 -0 -0 -0 -0 -0 -0 -0 -0 -0 -0 -0 -0 -0 -0 -0 -0 -0 -0 -0 -0 -0 0 0 0 0 0 0 0 0
-0 -0 -0 -0 -0 -0 -0 -0 -0 -0 -0 -0 -0 -0 -0 -0 -0 -0 -0 -0 -0 -0 -0 -0 -0 -0 -0 -0 -0 -0 -0 -0 -0 0 0 0 0 0 0 0 0 0 0
-0 -0 -0 -0 -0 -0 -0 -0 -0 -0 -0 -0 -0 -0 -0 -0 -0 -0 -0 -0 -0 -0 -0 -0 -0 -0 -0 0 0 0 0 0 0 0 0 0 0 0 0 0 0 0 0
-0 -0 -0 -0 -0 -0 -0 -0 -0 -0 -0 -0 -0 -0 -0 -0 -0 -0 -0 -0 -0 -0 -0 -0 -0 -0 0 0 0 0 0 -0 -0 -0 0 -0 0 0 0 0 0 0 0
0 -0 -0 -0 -0 -0 -0 -0 -0 -0 -0 -0 -0 -0 -0 -0 -0 -0 -0 -0 -0 -0 0 0 0 0 0 0 0 0 0 -0 -0 -0 -0 -0 -0 0 0 0 0 0 0
-0 0 -0 0 0 -0 -0 -0 -0 -0 -0 -0 -0 -0 -0 -0 -0 -0 0 0 0 0 0 0 0 0 0 0 0 0 0 0 -0 -0 -0 -0 -0 -0 -0 0 0 0 0
0 -0 -0 0 0 -0 -0 -0 -0 -0 -0 -0 -0 -0 -0 0 0 0 0 0 0 0 0 0 0 0 0 0 0 0 0 0 0 0 0 0 0 -0 -0 -0 -0 0 0
-0 0 -0 0 -0 -0 -0 0 -0 -0 0 0 0 0 0 0 0 0 0 0 0 0 0 0 0 0 0 0 0 0 0 0 0 0 0 0 0 0 -0 -0 -0 0 0
0 0 -0 -0 -0 -0 -0 -0 0 0 0 0 0 0 0 0 0 0 0 0 0 0 0 0 0 0 0 0 0 0 0 0 0 0 0 0 0 0 0 0 0 0 0
0 0 0 -0 -0 -0 -0 -0 -0 0 0 0 0 0 0 0 0 0 0 0 0 0 0 0 0 0 0 0 0 0 0 0 0 0 0 0 0 0 0 0 0 0 0
0 0 0 0 0 0 -0 -0 -0 -0 -0 0 0 0 0 0 0 0 0 0 0 0 0 0 0 0 0 0 0 0 0 0 0 0 0 0 0 0 1 1 1 0 0
0 0 0 0 0 0 -0 -0 -0 -0 -0 -0 0 0 0 0 0 0 0 0 0 0 0 0 0 0 0 0 0 0 0 0 0 0 0 0 0 0 0 0 1 1 1
0 0 0 0 0 0 0 0 0 -0 -0 -0 -0 0 0 0 0 0 0 0 0 0 0 0 0 0 1 0 0 0 0 0 0 0 0 0 0 0 0 0 1 1 1
0 0 0 0 0 0 0 0 0 0 0 -0 -0 -0 0 0 0 0 0 0 0 0 0 1 1 1 1 0 0 0 0 0 0 0 0 0 0 0 0 0 0 1 1
0 0 1 0 1 1 1 1 0 0 0 -0 0 0 0 0 0 0 0 0 0 1 1 1 1 1 0 0 0 0 0 0 0 0 0 0 0 0 0 0 0 0 0
0 0 1 0 1 0 0 0 0 0 0 0 0 0 0 0 0 0 0 0 0 0 1 1 1 0 0 0 0 0 0 0 0 0 0 0 0 0 0 0 0 0 0
0 1 1 1 1 0 0 0 0 1 0 0 0 0 0 0 0 0 1 1 1 1 0 0 0 0 0 0 0 0 0 0 0 0 0 0 0 0 0 0 0 0 0
1 0 1 0 1 0 0 1 1 1 1 1 1 1 1 1 1 1 1 0 0 1 0 0 0 0 0 0 0 0 0 0 0 0 0 0 0 0 0 0 0 0 0
1 2 2 1 1 1 1 1 1 1 2 2 1 1 1 1 1 1 0 0 0 0 0 0 0 0 0 0 0 0 0 0 0 0 0 0 0 0 0 0 0 0 0
0 0 0 0 1 1 1 1 1 2 1 1 1 1 1 1 0 0 0 0 0 0 0 0 0 0 0 0 0 0 0 0 0 0 0 0 0 0 0 0 0 0 0
0 0 0 0 0 0 1 1 2 2 1 1 1 1 0 0 0 0 0 0 0 0 0 0 0 0 0 0 0 0 0 0 0 0 0 0 0 0 0 0 0 0 0
0 0 0 0 0 0 0 1 1 1 0 0 0 0 0 0 0 0 0 0 0 0 0 0 0 0 0 0 0 0 0 0 0 0 0 0 0 0 0 0 0 0 0
0 0 0 0 0 0 0 0 0 0 0 0 0 0 0 0 0 0 0 0 0 0 0 0 0 0 0 0 0 0 0 0 0 0 0 0 0 0 0 0 0 0 0
0 0 0 0 0 0 0 0 0 0 0 0 0 0 0 0 0 0 0 0 0 0 0 0 0 0 0 0 0 0 0 0 0 0 0 0 0 0 0 0 0 0 0
0 0 0 0 0 0 0 0 0 0 0 0 0 0 0 0 0 0 0 0 0 0 0 0 0 0 0 0 0 0 0 0 0 0 0 0 0 0 0 0 0 0 0
0 0 0 0 0 0 0 0 0 0 0 0 0 0 0 0 0 0 0 0 0 0 0 0 0 0 0 0 0 0 0 0 0 0 0 0 0 0 0 0 0 0 0
Wind_Speed_500mb
37 36 33 30 27 22 18 17 22 27 28 28 25 22 20 23 25 28 32 31 27 22 19 19 17 15 13 11 10 12 15 18 20 20 22 25 27 28 31 30 27 22 18
39 38 34 32 29 24 19 16 19 23 25 27 26 24 23 24 25 27 30 30 26 22 16 14 14 13 11 9 11 12 13 15 16 12 13 13 18 22 25 27 27 24 20
40 39 33 31 29 26 21 17 17 19 20 21 22 22 23 23 25 28 30 30 27 22 16 14 13 10 8 8 10 10 10 10 9 5 5 6 5 14 17 20 23 24 22
38 36 32 29 30 27 23 18 17 18 19 20 21 22 22 22 23 27 29 29 25 20 15 12 8 6 5 5 6 7 8 8 7 4 1 5 8 10 13 13 15 19 21
36 32 31 28 29 27 22 19 16 16 18 19 19 20 19 20 21 23 25 25 21 16 12 8 5 3 4 4 5 8 8 8 7 5 5 6 8 11 12 14 13 13 15
32 28 26 25 26 25 21 17 14 14 14 16 18 17 17 18 19 21 22 21 18 14 11 9 8 6 6 6 6 6 9 11 11 13 13 12 12 16 18 18 14 14 13
29 28 28 26 25 23 20 17 15 13 13 13 14 15 16 17 18 19 20 20 17 14 11 10 9 9 8 6 6 7 8 9 10 13 15 16 17 21 22 24 23 23 18
26 25 25 26 26 24 20 16 15 13 11 12 11 12 13 15 16 18 19 18 16 14 12 10 9 8 7 7 8 8 7 7 6 6 6 7 9 12 18 23 27 24 23
25 23 24 25 26 25 21 17 15 13 11 10 10 11 12 13 15 16 17 18 17 15 14 11 8 7 6 7 7 8 6 5 4 3 3 2 6 8 11 14 16 21 27
23 21 22 24 24 22 19 18 15 14 12 12 11 11 13 14 14 15 17 18 18 17 15 11 9 8 9 7 5 4 6 5 3 3 5 8 12 14 16 16 15 15 17
27 24 22 21 21 21 20 18 16 14 14 12 11 12 12 13 14 16 16 17 17 17 16 14 12 11 10 7 5 5 5 4 6 7 9 15 19 22 23 23 24 25 27
28 27 23 20 19 19 19 18 16 13 11 10 7 9 11 13 15 16 17 17 16 17 17 15 15 14 13 12 10 6 3 3 6 8 13 17 22 25 28 29 30 30 32
29 32 27 24 23 21 21 20 17 11 6 7 7 7 13 15 16 16 17 17 14 14 14 16 16 15 15 12 9 7 5 6 7 10 15 19 24 27 29 32 34 38 41
29 30 29 26 26 23 23 22 16 11 6 8 10 11 15 17 17 16 15 17 16 16 18 20 19 17 16 14 10 6 5 7 13 15 20 24 28 33 36 37 39 39 41
39 38 31 30 27 24 24 21 19 17 16 12 16 17 18 19 17 19 17 19 22 23 24 25 25 21 18 16 12 9 10 13 19 19 21 24 27 31 35 37 38 38 40
40 42 42 41 36 28 27 21 20 23 20 17 20 18 21 18 18 19 19 24 28 34 30 32 30 24 22 19 16 15 17 20 21 21 22 23 26 29 36 37 37 38 40
43 34 40 39 36 34 26 24 20 16 22 23 23 20 22 21 19 21 27 29 30 33 37 39 32 27 26 22 20 20 23 24 21 21 20 19 23 29 29 33 35 38 40
17 8 26 37 32 31 21 15 13 18 23 27 23 22 24 25 26 28 35 33 34 33 33 30 29 30 27 24 23 25 26 26 24 22 20 22 31 34 30 33 37 37 40
7 13 25 29 20 16 10 15 19 22 24 24 24 27 28 27 32 36 37 35 32 25 20 23 22 26 27 26 25 27 28 27 27 28 28 34 29 35 37 40 37 37 38
19 12 11 7 4 9 16 22 20 18 20 23 23 23 22 27 30 31 30 22 22 21 21 22 22 22 22 25 26 26 27 26 28 33 31 41 39 43 44 42 41 38 36
43 30 23 23 21 19 14 9 12 19 21 26 26 26 25 28 29 29 26 25 26 30 31 27 22 17 20 23 25 30 34 32 41 34 37 40 47 43 45 42 40 41 40
46 39 29 26 18 11 6 4 9 15 21 27 28 29 29 28 29 29 31 30 32 32 33 34 38 42 46 42 28 39 27 39 32 37 59 49 55 49 48 46 44 43 44
52 47 40 36 26 18 11 7 3 5 10 16 22 28 32 28 28 27 30 33 40 40 38 42 48 49 42 47 52 51 34 51 42 42 45 46 39 42 48 54 57 50 50
45 34 30 25 18 15 12 8 8 6 8 14 19 21 26 28 28 31 33 37 38 41 46 42 42 43 42 48 53 50 51 41 27 33 33 38 50 48 53 53 49 50 56
30 29 23 18 14 13 11 11 9 8 12 15 20 22 25 30 30 35 39 41 45 45 43 42 46 50 49 46 41 40 40 33 30 30 40 37 44 43 44 41 42 45 41
30 28 27 27 26 24 24 25 26 27 28 30 31 32 35 34 35 38 41 47 50 51 51 52 54 51 46 46 45 43 35 25 28 32 39 45 49 44 41 45 39 39 41
Wind_Direction_500mb
176 177 175 167 161 160 156 160 162 162 164 168 170 166 156 149 147 149 155 153 147 138 131 135 140 143 143 143 126 119 115 116 112 94 80 73 66 61 55 56 60 62 66
175 176 174 169 164 161 157 161 161 160 162 165 167 166 160 155 152 154 159 158 154 149 140 140 146 152 153 148 144 134 126 128 124 101 75 67 57 53 52 49 49 51 58
175 173 173 173 167 165 161 164 162 160 159 161 163 163 161 159 158 159 162 162 160 157 148 140 134 137 143 142 149 148 141 142 148 126 69 35 37 34 35 36 39 37 39
172 173 175 175 173 171 167 167 164 159 158 160 161 162 160 160 161 162 166 167 167 165 160 156 140 126 134 152 166 173 172 161 163 168 56 3 14 4 15 14 17 23 23
173 174 175 175 178 174 174 172 167 163 160 160 163 165 165 165 165 166 169 173 176 178 181 190 206 209 178 187 204 211 214 209 206 207 247 304 333 338 356 356 350 356 7
174 176 173 177 180 178 180 180 175 168 164 162 167 171 172 172 170 169 172 181 187 195 203 211 210 211 220 230 246 251 246 243 244 250 262 278 292 302 312 325 324 323 323
174 176 172 174 180 185 189 193 191 179 172 171 173 177 179 180 178 177 180 186 191 192 195 200 206 212 219 230 245 252 257 259 254 262 273 280 287 291 292 292 295 300 312
178 177 172 176 180 188 196 203 204 196 189 183 183 185 191 192 192 192 192 194 193 191 193 201 205 214 220 226 233 242 250 255 264 273 279 290 294 297 297 289 282 281 281
182 173 183 180 182 189 193 202 210 211 200 198 194 199 207 210 210 211 211 212 211 206 206 216 226 226 214 222 243 249 240 218 162 196 198 226 279 296 311 312 292 279 277
187 181 185 181 185 189 191 194 203 211 211 210 209 209 217 221 226 227 227 226 222 216 217 222 219 205 190 186 177 177 182 188 186 223 261 274 285 289 292 298 297 287 286
195 191 192 186 182 183 183 190 192 198 212 214 222 227 231 235 237 237 233 233 227 219 222 222 211 197 201 198 190 192 206 232 264 274 286 286 289 293 295 296 292 289 286
207 196 195 196 192 184 186 191 191 197 215 221 232 259 263 259 254 245 240 235 227 225 228 227 208 216 220 216 221 224 224 273 292 295 294 297 297 297 297 295 296 294 290
217 213 201 196 198 196 196 200 196 191 216 230 236 271 269 265 263 261 252 244 230 236 228 215 214 224 221 217 214 222 260 290 308 320 318 317 313 308 303 297 292 288 285
223 216 208 203 205 203 209 210 207 209 239 249 251 273 285 282 278 266 260 234 236 228 222 216 222 217 211 211 210 237 273 304 315 317 317 316 317 316 311 305 299 292 289
243 223 219 213 214 215 221 223 218 221 237 248 251 261 274 279 278 270 262 258 258 247 241 236 238 236 227 220 225 244 272 299 306 309 315 321 322 319 314 307 300 292 286
262 237 227 215 210 218 220 227 230 235 248 255 260 273 282 275 272 263 268 275 269 261 259 249 232 233 236 235 244 264 284 299 303 311 320 325 328 329 322 312 301 292 287
269 254 232 217 215 218 224 217 235 252 253 263 270 271 279 274 272 263 273 275 275 264 259 250 234 229 228 245 260 273 286 291 294 303 312 317 327 325 325 314 302 294 289
275 216 211 206 208 222 227 227 253 268 259 253 256 271 280 282 277 282 282 282 279 270 257 255 219 223 237 255 267 277 286 289 295 298 305 316 323 327 334 325 312 301 289
182 177 180 201 204 227 245 243 256 264 264 260 264 267 279 279 278 279 279 279 278 274 259 246 222 234 248 262 274 283 286 288 295 301 303 316 314 328 328 323 314 304 292
115 134 152 168 185 219 237 253 265 272 264 259 262 269 270 275 279 280 282 266 260 248 235 239 239 243 265 283 291 294 299 300 299 304 303 319 313 321 323 323 319 308 297
92 103 120 156 167 201 220 235 253 258 263 260 260 259 268 272 275 279 269 268 259 252 247 240 244 258 280 295 307 316 316 319 317 302 311 310 311 309 318 322 318 314 308
85 84 88 88 86 75 53 18 302 282 268 260 263 271 273 273 275 275 272 273 271 253 244 247 258 265 273 272 282 317 315 309 306 290 304 303 308 305 315 324 319 312 305
73 73 70 68 66 65 61 62 42 323 301 290 279 279 276 270 262 264 267 274 279 273 269 274 278 277 265 276 283 280 279 280 289 291 294 304 296 303 309 317 319 315 311
62 66 64 60 55 55 48 34 22 354 315 292 295 295 298 293 286 280 275 271 270 274 277 276 273 270 276 278 278 277 279 274 278 290 286 296 299 302 307 310 308 309 311
49 45 44 40 34 32 16 352 333 297 286 279 272 271 266 266 268 270 270 267 274 278 275 270 275 279 279 278 276 275 273 271 268 261 283 290 292 298 299 303 301 302 300
22 11 3 354 348 341 333 324 316 308 300 292 285 282 274 270 268 266 265 272 277 275 274 275 277 276 275 276 274 270 264 258 268 274 283 294 294 301 297 293 304 296 292
Wind_Speed_850mb
37 36 33 30 27 22 18 17 22 27 28 28 25 22 20 23 25 28 32 31 27 22 19 19 17 15 13 11 10 12 15 18 20 20 22 25 27 28 31 30 27 22 18
39 38 34 32 29 24 19 16 19 23 25 27 26 24 23 24 25 27 30 30 26 22 16 14 14 13 11 9 11 12 13 15 16 12 13 13 18 22 25 27 27 24 20
40 39 33 31 29 26 21 17 17 19 20 21 22 22 23 23 25 28 30 30 27 22 16 14 13 10 8 8 10 10 10 10 9 5 5 6 5 14 17 20 23 24 22
38 36 32 29 30 27 23 18 17 18 19 20 21 22 22 22 23 27 29 29 25 20 15 12 8 6 5 5 6 7 8 8 7 4 1 5 8 10 13 13 15 19 21
36 32 31 28 29 27 22 19 16 16 18 19 19 20 19 20 21 23 25 25 21 16 12 8 5 3 4 4 5 8 8 8 7 5 5 6 8 11 12 14 13 13 15
32 28 26 25 26 25 21 17 14 14 14 16 18 17 17 18 19 21 22 21 18 14 11 9 8 6 6 6 6 6 9 11 11 13 13 12 12 16 18 18 14 14 13
29 28 28 26 25 23 20 17 15 13 13 13 14 15 16 17 18 19 20 20 17 14 11 10 9 9 8 6 6 7 8 9 10 13 15 16 17 21 22 24 23 23 18
26 25 25 26 26 24 20 16 15 13 11 12 11 12 13 15 16 18 19 18 16 14 12 10 9 8 7 7 8 8 7 7 6 6 6 7 9 12 18 23 27 24 23
25 23 24 25 26 25 21 17 15 13 11 10 10 11 12 13 15 16 17 18 17 15 14 11 8 7 6 7 7 8 6 5 4 3 3 2 6 8 11 14 16 21 27
23 21 22 24 24 22 19 18 15 14 12 12 11 11 13 14 14 15 17 18 18 17 15 11 9 8 9 7 5 4 6 5 3 3 5 8 12 14 16 16 15 15 17
27 24 22 21 21 21 20 18 16 14 14 12 11 12 12 13 14 16 16 17 17 17 16 14 12 11 10 7 5 5 5 4 6 7 9 15 19 22 23 23 24 25 27
28 27 23 20 19 19 19 18 16 13 11 10 7 9 11 13 15 16 17 17 16 17 17 15 15 14 13 12 10 6 3 3 6 8 13 17 22 25 28 29 30 30 32
29 32 27 24 23 21 21 20 17 11 6 7 7 7 13 15 16 16 17 17 14 14 14 16 16 15 15 12 9 7 5 6 7 10 15 19 24 27 29 32 34 38 41
29 30 29 26 26 23 23 22 16 11 6 8 10 11 15 17 17 16 15 17 16 16 18 20 19 17 16 14 10 6 5 7 13 15 20 24 28 33 36 37 39 39 41
39 38 31 30 27 24 24 21 19 17 16 12 16 17 18 19 17 19 17 19 22 23 24 25 25 21 18 16 12 9 10 13 19 19 21 24 27 31 35 37 38 38 40
40 42 42 41 36 28 27 21 20 23 20 17 20 18 21 18 18 19 19 24 28 34 30 32 30 24 22 19 16 15 17 20 21 21 22 23 26 29 36 37 37 38 40
43 34 40 39 36 34 26 24 20 16 22 23 23 20 22 21 19 21 27 29 30 33 37 39 32 27 26 22 20 20 23 24 21 21 20 19 23 29 29 33 35 38 40
17 8 26 37 32 31 21 15 13 18 23 27 23 22 24 25 26 28 35 33 34 33 33 30 29 30 27 24 23 25 26 26 24 22 20 22 31 34 30 33 37 37 40
7 13 25 29 20 16 10 15 19 22 24 24 24 27 28 27 32 36 37 35 32 25 20 23 22 26 27 26 25 27 28 27 27 28 28 34 29 35 37 40 37 37 38
19 12 11 7 4 9 16 22 20 18 20 23 23 23 22 27 30 31 30 22 22 21 21 22 22 22 22 25 26 26 27 26 28 33 31 41 39 43 44 42 41 38 36
43 30 23 23 21 19 14 9 12 19 21 26 26 26 25 28 29 29 26 25 26 30 31 27 22 17 20 23 25 30 34 32 41 34 37 40 47 43 45 42 40 41 40
46 39 29 26 18 11 6 4 9 15 21 27 28 29 29 28 29 29 31 30 32 32 33 34 38 42 46 42 28 39 27 39 32 37 59 49 55 49 48 46 44 43 44
52 47 40 36 26 18 11 7 3 5 10 16 22 28 32 28 28 27 30 33 40 40 38 42 48 49 42 47 52 51 34 51 42 42 45 46 39 42 48 54 57 50 50
45 34 30 25 18 15 12 8 8 6 8 14 19 21 26 28 28 31 33 37 38 41 46 42 42 43 42 48 53 50 51 41 27 33 33 38 50 48 53 53 49 50 56
30 29 23 18 14 13 11 11 9 8 12 15 20 22 25 30 30 35 39 41 45 45 43 42 46 50 49 46 41 40 40 33 30 30 40 37 44 43 44 41 42 45 41
30 28 27 27 26 24 24 25 26 27 28 30 31 32 35 34 35 38 41 47 50 51 51 52 54 51 46 46 45 43 35 25 28 32 39 45 49 44 41 45 39 39 41
Wind_Direction_850mb
176 177 175 167 161 160 156 160 162 162 164 168 170 166 156 149 147 149 155 153 147 138 131 135 140 143 143 143 126 119 115 116 112 94 80 73 66 61 55 56 60 62 66
175 176 174 169 164 161 157 161 161 160 162 165 167 166 160 155 152 154 159 158 154 149 140 140 146 152 153 148 144 134 126 128 124 101 75 67 57 53 52 49 49 51 58
175 173 173 173 167 165 161 164 162 160 159 161 163 163 161 159 158 159 162 162 160 157 148 140 134 137 143 142 149 148 141 142 148 126 69 35 37 34 35 36 39 37 39
172 173 175 175 173 171 167 167 164 159 158 160 161 162 160 160 161 162 166 167 167 165 160 156 140 126 134 152 166 173 172 161 163 168 56 3 14 4 15 14 17 23 23
173 174 175 175 178 174 174 172 167 163 160 160 163 165 165 165 165 166 169 173 176 178 181 190 206 209 178 187 204 211 214 209 206 207 247 304 333 338 356 356 350 356 7
174 176 173 177 180 178 180 180 175 168 164 162 167 171 172 172 170 169 172 181 187 195 203 211 210 211 220 230 246 251 246 243 244 250 262 278 292 302 312 325 324 323 323
174 176 172 174 180 185 189 193 191 179 172 171 173 177 179 180 178 177 180 186 191 192 195 200 206 212 219 230 245 252 257 259 254 262 273 280 287 291 292 292 295 300 312
178 177 172 176 180 188 196 203 204 196 189 183 183 185 191 192 192 192 192 194 193 191 193 201 205 214 220 226 233 242 250 255 264 273 279 290 294 297 297 289 282 281 281
182 173 183 180 182 189 193 202 210 211 200 198 194 199 207 210 210 211 211 212 211 206 206 216 226 226 214 222 243 249 240 218 162 196 198 226 279 296 311 312 292 279 277
187 181 185 181 185 189 191 194 203 211 211 210 209 209 217 221 226 227 227 226 222 216 217 222 219 205 190 186 177 177 182 188 186 223 261 274 285 289 292 298 297 287 286
195 191 192 186 182 183 183 190 192 198 212 214 222 227 231 235 237 237 233 233 227 219 222 222 211 197 201 198 190 192 206 232 264 274 286 286 289 293 295 296 292 289 286
207 196 195 196 192 184 186 191 191 197 215 221 232 259 263 259 254 245 240 235 227 225 228 227 208 216 220 216 221 224 224 273 292 295 294 297 297 297 297 295 296 294 290
217 213 201 196 198 196 196 200 196 191 216 230 236 271 269 265 263 261 252 244 230 236 228 215 214 224 221 217 214 222 260 290 308 320 318 317 313 308 303 297 292 288 285
223 216 208 203 205 203 209 210 207 209 239 249 251 273 285 282 278 266 260 234 236 228 222 216 222 217 211 211 210 237 273 304 315 317 317 316 317 316 311 305 299 292 289
243 223 219 213 214 215 221 223 218 221 237 248 251 261 274 279 278 270 262 258 258 247 241 236 238 236 227 220 225 244 272 299 306 309 315 321 322 319 314 307 300 292 286
262 237 227 215 210 218 220 227 230 235 248 255 260 273 282 275 272 263 268 275 269 261 259 249 232 233 236 235 244 264 284 299 303 311 320 325 328 329 322 312 301 292 287
269 254 232 217 215 218 224 217 235 252 253 263 270 271 279 274 272 263 273 275 275 264 259 250 234 229 228 245 260 273 286 291 294 303 312 317 327 325 325 314 302 294 289
275 216 211 206 208 222 227 227 253 268 259 253 256 271 280 282 277 282 282 282 279 270 257 255 219 223 237 255 267 277 286 289 295 298 305 316 323 327 334 325 312 301 289
182 177 180 201 204 227 245 243 256 264 264 260 264 267 279 279 278 279 279 279 278 274 259 246 222 234 248 262 274 283 286 288 295 301 303 316 314 328 328 323 314 304 292
115 134 152 168 185 219 237 253 265 272 264 259 262 269 270 275 279 280 282 266 260 248 235 239 239 243 265 283 291 294 299 300 299 304 303 319 313 321 323 323 319 308 297
92 103 120 156 167 201 220 235 253 258 263 260 260 259 268 272 275 279 269 268 259 252 247 240 244 258 280 295 307 316 316 319 317 302 311 310 311 309 318 322 318 314 308
85 84 88 88 86 75 53 18 302 282 268 260 263 271 273 273 275 275 272 273 271 253 244 247 258 265 273 272 282 317 315 309 306 290 304 303 308 305 315 324 319 312 305
73 73 70 68 66 65 61 62 42 323 301 290 279 279 276 270 262 264 267 274 279 273 269 274 278 277 265 276 283 280 279 280 289 291 294 304 296 303 309 317 319 315 311
62 66 64 60 55 55 48 34 22 354 315 292 295 295 298 293 286 280 275 271 270 274 277 276 273 270 276 278 278 277 279 274 278 290 286 296 299 302 307 310 308 309 311
49 45 44 40 34 32 16 352 333 297 286 279 272 271 266 266 268 270 270 267 274 278 275 270 275 279 279 278 276 275 273 271 268 261 283 290 292 298 299 303 301 302 300
22 11 3 354 348 341 333 324 316 308 300 292 285 282 274 270 268 266 265 272 277 275 274 275 277 276 275 276 274 270 264 258 268 274 283 294 294 301 297 293 304 296 292